印度国家卫星-1B星 (INSAT-1B)

导读 | 豆包AI

INSAT 1B是印度国家卫星系统(INSAT)系列的第二颗卫星,于1983年8月30日从美国肯尼迪航天中心LC-39A发射台由航天飞机发射升空。作为多用途地球静止轨道卫星,它由福特工程公司研发,质量1152千克,设计寿命7年,主要承担通信、广播电视传输、气象观测及灾害搜救任务,是印度航天通信事业发展的重要里程碑,也推动了亚太区域卫星通信服务的发展。

基本信息
目录编号:
14318
目录名称:
INSAT 1B
国际标识:
1983-089B
轨道中心:
EARTH
卫星名称:
印度国家卫星-1B星
卫星全名:
印度国家卫星-1B星 (INSAT-1B)
卫星状态:
在轨 (已飞行15585 天)
发射日期:
1983-08-30 UTC
国别 :
印度 (IN)
星等 :
--
轨道信息
数据来源 国际轨道数据 AOE轨道数据
星历时间 2026-04-30T21:54:39+0800
20小时前
查看轨道信息
2026-05-01T05:00:00+0800
13小时前
查看轨道信息
半长轴 42194.976km 42194.948km
偏心率 0.0008233 0.0008193
轨道倾角 11.233° 11.232°
近地点辐角 246.266° 245.762°
升交点赤经 327.344° 327.340°
平近点角 294.075° 41.098°
近地点 35782.099km 35782.24km
远地点 35851.579km 35851.382km
周期 1437.642分钟 1437.641分钟
每日圈数 1.00164 1.001641
详细信息
平衡模式:
三轴稳定
覆盖范围:
全球
运营商:
印度空间研究组织
运营商所在国:
印度
制造商(研发单位):
福特工程公司
制造商所在国:
美国
使用方式:
暂无
卫星简介
印度先后发展了“印度卫星”(INSAT)和“地球静止卫星”(GSAT)两大静止轨道通信卫星系列,共发射卫星28颗,其中INSAT系列的前4颗向美国购买,后续卫星均由ISRO研制。在自行研制的24颗通信卫星中,有19颗发射成功,3颗发射失败,2颗发射部分失败。该卫星已退役。
2D轨道图
3D轨道图
轨道高度分析图
轨道倾角分析图
轨道综合分析图
查看轨道综合分析图